Russellville, AR

5:27 AM CDT on September 26, 2017 (GMT -0500)
Russellville Regional

Weather History for KRUE - February, 2013

Change the Weather History Date:

Tuesday, February 19, 2013

  Actual Average (KHOT) Record (KHOT)
Temperature  
Mean Temperature 40 °F -  
Max Temperature 53 °F 58 °F 82 °F (1986)
Min Temperature 28 °F 35 °F 14 °F (1978)
Degree Days  
Heating Degree Days 24    
Moisture  
Dew Point 23 °F    
Average Humidity 57    
Maximum Humidity 82    
Minimum Humidity 26    
Precipitation  
Precipitation 0.00 in - - ()
Sea Level Pressure  
Sea Level Pressure 30.23 in    
Wind  
Wind Speed 6 mph (WNW)    
Max Wind Speed 16 mph    
Max Gust Speed 24 mph    
Visibility 10 miles    
Events      
Averages and records for this station are not official NWS values.
T = Trace of Precipitation, MM = Missing Value Source: NWS Daily Summary

Daily Weather History Graph

Daily Weather History Graph

Search for Another Location

Airport or City:

Trip Planner

Search our weather history database for the weather conditions in past years. The results will help you decide how hot, cold, wet, or windy it might be!

Date:

Astronomy

Feb. 19, 2013 Rise Set
Actual Time 6:53 AM CST 5:58 PM CST
Civil Twilight 6:28 AM CST 6:24 PM CST
Nautical Twilight 5:58 AM CST 6:54 PM CST
Astronomical Twilight 5:29 AM CST 7:23 PM CST
Moon 12:37 PM CST (2/19) 2:19 AM CST (2/19)
Length of Visible Light 11h 56m
Length of Day
11h 05m
Waxing Gibbous, 67% of the Moon is Illuminated
Feb 19
Waxing Gibbous
Feb 25
Full
Mar 4
Last Quarter
Mar 11
New
Mar 19
First Quarter

Hourly Weather History & Observations

Time (CST) Temp. Windchill Dew Point Humidity Pressure Visibility Wind Dir Wind Speed Gust Speed Precip Events Conditions
12:53 AM 44.1 °F 38.1 °F 30.9 °F 60% 30.08 in 10.0 mi WNW 11.5 mph - N/A   Clear
2:53 AM 39.0 °F 33.4 °F 24.1 °F 55% 30.13 in 10.0 mi NW 8.1 mph - N/A   Clear
3:53 AM 37.9 °F 31.5 °F 21.9 °F 53% 30.14 in 10.0 mi NNW 9.2 mph - N/A   Clear
4:53 AM 36.0 °F 31.1 °F 19.9 °F 52% 30.16 in 10.0 mi NW 5.8 mph - N/A   Clear
5:53 AM 30.0 °F - 23.0 °F 75% 30.19 in 10.0 mi Calm Calm - N/A   Clear
6:53 AM 28.0 °F - 23.0 °F 81% 30.22 in 10.0 mi Calm Calm - N/A   Clear
7:53 AM 32.0 °F - 26.1 °F 79% 30.25 in 10.0 mi Calm Calm - N/A   Clear
8:53 AM 39.9 °F 37.8 °F 24.1 °F 53% 30.27 in 10.0 mi WSW 3.5 mph - N/A   Clear
9:53 AM 42.1 °F 38.4 °F 19.9 °F 41% 30.29 in 10.0 mi NW 5.8 mph - N/A   Clear
10:53 AM 46.0 °F 42.5 °F 21.0 °F 37% 30.30 in 10.0 mi Variable 6.9 mph - N/A   Clear
12:53 PM 48.9 °F - 21.9 °F 35% 30.29 in 10.0 mi West 9.2 mph - N/A   Clear
1:53 PM 51.1 °F - 23.0 °F 33% 30.27 in 10.0 mi West 16.1 mph 24.2 mph N/A   Clear
3:53 PM 53.1 °F - 19.0 °F 26% 30.24 in 10.0 mi WNW 8.1 mph 17.3 mph N/A   Clear
4:53 PM 52.0 °F - 18.0 °F 26% 30.23 in 10.0 mi WNW 10.4 mph - N/A   Clear
6:53 PM 37.9 °F - 26.1 °F 62% 30.25 in 10.0 mi Calm Calm - N/A   Clear
7:53 PM 36.0 °F - 26.1 °F 67% 30.25 in 10.0 mi Calm Calm - N/A   Clear
8:53 PM 33.1 °F - 26.1 °F 75% 30.26 in 10.0 mi Calm Calm - N/A   Clear
9:53 PM 30.9 °F - 24.1 °F 76% 30.28 in 10.0 mi Calm Calm - N/A   Clear
10:53 PM 30.9 °F - 26.1 °F 82% 30.27 in 10.0 mi Calm Calm - N/A   Clear
11:53 PM 30.9 °F - 25.0 °F 79% 30.28 in 10.0 mi Calm Calm - N/A   Clear